Regional Weather Roundup
Issued by NWS Bismarck, ND

Home | Current Version | Previous Version | Text Only | Print | Product List | Glossary On
Versions: 1 2 3 4 5 6 7 8 9 10 11 12 13 14 15 16 17 18 19 20 21 22 23 24 25 26 27 28 29 30 31 32 33 34 35 36 37 38 39 40 41 42 43 44 45 46 47 48 49 50
506
ASUS43 KBIS 191510
RWRBIS

NWR BROADCAST TEXT
NATIONAL WEATHER SERVICE BISMARCK ND
1000 AM CDT SAT AUG 19 2017

NOTE: "FAIR" INDICATES FEW OR NO CLOUDS BELOW 12,000 FEET WITH NO
SIGNIFICANT WEATHER AND/OR OBSTRUCTIONS TO VISIBILITY.


CITY           SKY/WX    TMP DP  RH WIND       PRES   REMARKS
WILLISTON      SUNNY     70  53  54 S7        29.73F
MINOT          SUNNY     74  56  53 S13       29.73F
MINOT AFB      SUNNY     75  55  49 S15       29.70F
BISMARCK       SUNNY     71  61  70 SE8       29.81F
DICKINSON      SUNNY     70  53  54 SW10      29.78S
GARRISON         N/A     67  58  72 S9        29.76F
HETTINGER ARPT SUNNY     67  54  63 SW10      29.84F
JAMESTOWN      SUNNY     71  63  75 S7        29.85F
CARRINGTON     FAIR      73  61  64 S12       29.85S
HAZEN          FAIR      72  57  60 SW14      29.78F
LINTON         FAIR      68  57  68 SE9       29.85S
MANDAN         FAIR      70  59  68 S12       29.81F
RUGBY          FAIR      73  57  56 S14       29.76F
STANLEY        FAIR      70  61  73 S8        29.77S
TIOGA          FAIR      70  57  64 SW12      29.75F
WATFORD CITY   FAIR      72  50  46 SW7       29.74F
$$

CITY           SKY/WX    TMP DP  RH WIND       PRES   REMARKS
GRAND FORKS    SUNNY     74  61  63 SW10      29.82F
GRAND FORKS AF SUNNY     74  59  59 SW8       29.83S
DEVILS LAKE    SUNNY     73  58  59 SW14      29.81F
FARGO          SUNNY     69  61  75 S8        29.88S
CANDO          FAIR      73  55  53 S10G17    29.80F
CAVALIER       FAIR      73  61  64 S7        29.78F
GRAFTON        FAIR      72  61  68 S8        29.82F
GWINNER        SUNNY     66  61  82 S9        29.89F
LANGDON        FAIR      70  63  78 SW12      29.81S
ROLLA          FAIR      68  57  68 SW12      29.78F
WALHALLA       FAIR      75  73  94 SW8       29.77F
$$

CITY           SKY/WX    TMP DP  RH WIND       PRES   REMARKS
ABERDEEN       SUNNY     66  61  84 S10       29.90F
MOBRIDGE       SUNNY     70  61  73 S14       29.82F
BUFFALO          N/A     68  48  48 CALM      29.80S
RAPID CITY     SUNNY     75  53  46 SW3       29.88S
GLASGOW        CLOUDY    65  47  52 NW21G30   29.83R
SIDNEY         MOSUNNY   66  54  65 S8        29.75S
WOLF POINT     CLOUDY    69  45  41 W14       29.77R
GLENDIVE       CLOUDY    71  40  32 NW6       29.81R
MILES CITY     PTSUNNY   63  38  39 S6        29.86R
BAKER          MOSUNNY   77  37  23 W15       29.85R
$$

CITY           SKY/WX    TMP DP  RH WIND       PRES   REMARKS
BILLINGS       CLOUDY    68  35  29 SW9       29.96R
GREAT FALLS    SUNNY     58  45  62 N10       30.04R
REGINA         MOSUNNY   66  50  55 W17G28    29.69R
ESTEVAN        PTSUNNY   75  52  43 S16       29.68F
$$





USA.gov is the U.S. government's official web portal to all federal, state and local government web resources and services.